This demonstration page uses our WeatherBlox Daily Observations layout. Learn more.

Hourly Observations for February 16, 2018

Temp ( °F °C ) Dew Point ( °F °C ) Humidity (%) Winds ( mph kmh ) Pressure ( in mb ) Visibility ( mi km ) Precip ( " mm )
12:15 am 00:15 Mostly Cloudy 20 -6.5 16 -9 83 83 N 17 28 30.53 1034 10 16.0934 0 0
12:35 am 00:35 Cloudy 20 -6.9 15 -9.4 83 83 N 21 33 30.53 1034 10 16.0934 0 0
12:55 am 00:55 Mostly Cloudy 19 -7.3 14 -9.9 82 82 N 21 33 30.53 1034 10 16.0934 0 0
1:15 am 01:15 Cloudy 19 -7 15 -9.3 84 84 N 15 24 30.53 1034 10 16.0934 0 0
1:35 am 01:35 Cloudy 19 -7.1 15 -9.7 82 82 N 14 22 30.56 1035 10 16.0934 0 0
1:55 am 01:55 Cloudy 19 -7.2 14 -10 81 81 N 15 24 30.56 1035 10 16.0934 0 0
2:15 am 02:15 Mostly Cloudy 19 -7.5 14 -10.1 82 82 N 15 24 30.56 1035 10 16.0934 0 0
2:35 am 02:35 Cloudy 19 -7.5 14 -10 83 83 N 12 19 30.56 1035 10 16.0934 0 0
2:55 am 02:55 Cloudy with Light Snow 19 -7.5 14 -10.1 82 82 N 14 22 30.56 1035 10 16.0934 0 0
3:15 am 03:15 Cloudy with Light Snow 18 -7.7 14 -10.2 82 82 NNW 10 17 30.56 1035 10 16.0934 0 0
3:35 am 03:35 Cloudy 18 -8 13 -10.5 82 82 NNW 14 22 30.59 1036 10 16.0934 0 0
3:55 am 03:55 Mostly Cloudy 17 -8.4 12 -11 82 82 NNW 8 13 30.59 1036 10 16.0934 0 0
4:15 am 04:15 Mostly Cloudy 17 -8.5 13 -10.8 84 84 NNW 14 22 30.56 1035 10 16.0934 0 0
4:35 am 04:35 Mostly Cloudy 17 -8.6 12 -10.9 84 84 NNW 12 19 30.56 1035 10 16.0934 0 0
4:55 am 04:55 Cloudy 16 -8.8 12 -11 84 84 NNW 13 20 30.56 1035 10 16.0934 0 0
5:15 am 05:15 Cloudy 16 -9 12 -11.3 84 84 N 12 19 30.62 1037 10 16.0934 0 0
5:35 am 05:35 Partly Cloudy 15 -9.4 11 -11.5 85 85 NNW 9 15 30.59 1036 10 16.0934 0 0
5:55 am 05:55 Clear 15 -9.7 10 -12 84 84 NNW 9 15 30.62 1037 10 16.0934 0 0
6:15 am 06:15 Clear 14 -9.8 10 -12 84 84 NW 10 17 30.62 1037 10 16.0934 0 0
6:35 am 06:35 Clear 14 -10 10 -12.2 84 84 NW 8 13 30.62 1037 10 16.0934 0 0
6:55 am 06:55 Clear 14 -10.1 10 -12 86 86 WNW 6 9 30.62 1037 10 16.0934 0 0
7:15 am 07:15 Clear 14 -10.2 10 -12.1 86 86 WNW 6 9 30.62 1037 10 16.0934 0 0
7:35 am 07:35 Sunny 13 -10.4 10 -12.4 85 85 WNW 5 7 30.62 1037 10 16.0934 0 0
7:55 am 07:55 Sunny 14 -10.2 10 -12.1 86 86 WNW 5 7 30.62 1037 10 16.0934 0 0
8:15 am 08:15 Sunny 15 -9.7 11 -11.9 84 84 WNW 5 7 30.62 1037 10 16.0934 0 0
8:35 am 08:35 Sunny 15 -9.2 11 -11.5 84 84 W 8 13 30.62 1037 10 16.0934 0 0
8:55 am 08:55 Sunny 17 -8.6 11 -11.4 80 80 WNW 6 9 30.59 1036 10 16.0934 0 0
9:15 am 09:15 Sunny 17 -8.3 11 -11.4 79 79 W 7 11 30.59 1036 10 16.0934 0 0
9:35 am 09:35 Sunny 18 -7.7 11 -11.5 74 74 Calm 30.56 1035 10 16.0934 0 0
9:55 am 09:55 Sunny 20 -6.9 12 -11.3 71 71 SW 5 7 30.56 1035 10 16.0934 0 0
10:15 am 10:15 Sunny 20 -6.5 12 -11 71 71 SW 6 9 30.56 1035 10 16.0934 0 0
10:35 am 10:35 Sunny 22 -5.5 13 -10.3 69 69 SW 5 7 30.53 1034 10 16.0934 0 0
10:55 am 10:55 Sunny 23 -5.1 14 -10.1 68 68 SW 7 11 30.53 1034 10 16.0934 0 0
11:15 am 11:15 Sunny 24 -4.2 15 -9.5 67 67 WSW 7 11 30.53 1034 10 16.0934 0 0
11:35 am 11:35 Sunny 25 -3.9 15 -9.3 66 66 SW 8 13 30.5 1033 10 16.0934 0 0
11:55 am 11:55 Sunny 26 -3.2 16 -9 65 65 SSW 10 17 30.48 1032 10 16.0934 0 0
12:15 pm 12:15 Sunny 28 -2.5 17 -8.3 65 65 SW 12 19 30.48 1032 10 16.0934 0 0
12:35 pm 12:35 Sunny 29 -1.7 18 -7.6 64 64 SW 12 19 30.45 1031 10 16.0934 0 0
12:55 pm 12:55 Sunny 29 -1.4 18 -7.6 63 63 SW 13 20 30.45 1031 10 16.0934 0 0
1:15 pm 13:15 Sunny 30 -0.9 18 -7.6 61 61 SW 10 17 30.39 1029 10 16.0934 0 0
1:35 pm 13:35 Sunny 31 -0.3 19 -7.4 59 59 SW 10 17 30.36 1028 10 16.0934 0 0
1:55 pm 13:55 Sunny 32 -0.1 19 -7.3 59 59 S 13 20 30.33 1027 10 16.0934 0 0
2:15 pm 14:15 Sunny 32 0.1 20 -6.9 60 60 SSW 10 17 30.3 1026 10 16.0934 0 0
2:35 pm 14:35 Sunny 33 0.5 20 -6.9 58 58 SSW 15 24 30.3 1026 10 16.0934 0 0
2:55 pm 14:55 Sunny 32 0.2 19 -7.1 58 58 SSW 15 24 30.3 1026 10 16.0934 0 0
3:15 pm 15:15 Sunny 34 1 20 -6.8 56 56 SSW 15 24 30.27 1025 10 16.0934 0 0
3:35 pm 15:35 Sunny 34 1.1 19 -7 55 55 SSW 13 20 30.24 1024 10 16.0934 0 0
3:55 pm 15:55 Sunny 34 1.3 19 -7 54 54 S 16 26 30.21 1023 10 16.0934 0 0
4:15 pm 16:15 Sunny 35 1.5 19 -7.4 52 52 S 16 26 30.21 1023 10 16.0934 0 0
4:35 pm 16:35 Sunny 35 1.5 19 -7.1 53 53 S 17 28 30.21 1023 10 16.0934 0 0
4:55 pm 16:55 Sunny 34 1 19 -7.2 55 55 S 17 28 30.21 1023 10 16.0934 0 0
5:15 pm 17:15 Sunny 33 0.7 20 -6.9 57 57 S 10 17 30.24 1024 10 16.0934 0 0
5:35 pm 17:35 Sunny 33 0.4 20 -6.4 61 61 S 12 19 30.21 1023 10 16.0934 0 0
5:55 pm 17:55 Sunny 32 0.1 20 -6.5 62 62 S 12 19 30.21 1023 10 16.0934 0 0
6:15 pm 18:15 Clear 32 -0.1 20 -6.5 62 62 S 8 13 30.18 1022 10 16.0934 0 0
6:35 pm 18:35 Clear 31 -0.5 20 -6.5 64 64 SSE 9 15 30.18 1022 10 16.0934 0 0
6:55 pm 18:55 Clear 30 -1.3 21 -6.1 70 70 SSE 9 15 30.18 1022 10 16.0934 0 0
7:15 pm 19:15 Clear 30 -1.2 21 -6.1 70 70 S 13 20 30.15 1021 10 16.0934 0 0
7:35 pm 19:35 Clear 30 -0.9 20 -6.5 66 66 S 10 17 30.15 1021 10 16.0934 0 0
7:55 pm 19:55 Clear 30 -1.2 21 -6.3 69 69 S 8 13 30.15 1021 10 16.0934 0 0
8:15 pm 20:15 Clear 29 -1.5 20 -6.5 69 69 S 9 15 30.15 1021 10 16.0934 0 0
8:35 pm 20:35 Clear 30 -1.2 20 -6.6 67 67 S 9 15 30.15 1021 10 16.0934 0 0
8:55 pm 20:55 Clear 30 -1.3 20 -6.5 68 68 S 12 19 30.12 1020 10 16.0934 0 0
9:15 pm 21:15 Clear 30 -1.2 20 -6.7 67 67 S 12 19 30.12 1020 10 16.0934 0 0
9:35 pm 21:35 Clear 29 -1.5 20 -6.8 68 68 S 12 19 30.12 1020 10 16.0934 0 0
9:55 pm 21:55 Clear 29 -1.8 19 -7 68 68 S 10 17 30.09 1019 10 16.0934 0 0
10:15 pm 22:15 Clear 29 -1.8 19 -7.2 67 67 S 13 20 30.09 1019 10 16.0934 0 0
10:35 pm 22:35 Clear 28 -2 19 -7.3 67 67 S 10 17 30.09 1019 10 16.0934 0 0
10:55 pm 22:55 Clear 28 -2 19 -7.2 68 68 S 13 20 30.06 1018 10 16.0934 0 0
11:15 pm 23:15 Clear 28 -2.1 19 -7.3 68 68 S 10 17 30.06 1018 10 16.0934 0 0
11:35 pm 23:35 Clear 28 -2.2 18 -7.6 67 67 S 15 24 30.03 1017 10 16.0934 0 0
11:55 pm 23:55 Clear 28 -2.4 19 -7.4 69 69 S 12 19 30.03 1017 10 16.0934 0 0

Powered by AerisWeather